This demonstration page uses our WeatherBlox Daily Observations layout. Learn more.

40.92945, -100.16068

Hourly Observations for March 21, 2017

Temp ( °F °C ) Dew Point ( °F °C ) Humidity (%) Winds ( mph kmh ) Pressure ( in mb ) Visibility ( mi km ) Precip ( " mm )
12:15 am 00:15 Clear 47 8.4 27 -2.8 46 46 NE 12 19 30.24 1024 10 16.0934 0 0
12:35 am 00:35 Clear 48 9 28 -2.2 46 46 NE 12 19 30.21 1023 10 16.0934 0 0
12:55 am 00:55 Clear 48 9 29 -1.7 47 47 NE 14 22 30.21 1023 10 16.0934 0 0
1:15 am 01:15 Clear 48 9 30 -1.2 49 49 ENE 16 26 30.21 1023 10 16.0934 0 0
1:35 am 01:35 Partly Cloudy 48 9.1 31 -0.5 51 51 E 21 33 30.15 1021 10 16.0934 0 0
1:55 am 01:55 Clear 48 9 32 0 54 54 E 20 31 30.15 1021 10 16.0934 0 0
2:15 am 02:15 Clear 48 8.8 32 0.1 55 55 E 16 26 30.15 1021 10 16.0934 0 0
2:35 am 02:35 Clear 47 8.6 33 0.5 57 57 E 12 19 30.18 1022 10 16.0934 0 0
2:55 am 02:55 Partly Cloudy 47 8.5 33 0.5 57 57 E 12 19 30.18 1022 10 16.0934 0 0
3:15 am 03:15 Partly Cloudy 47 8.5 33 0.5 57 57 ENE 14 22 30.15 1021 10 16.0934 0 0
3:35 am 03:35 Partly Cloudy 47 8.2 33 0.6 59 59 ENE 10 17 30.15 1021 10 16.0934 0 0
3:55 am 03:55 Mostly Cloudy with Light Rain 46 8 34 1 62 62 E 7 11 30.21 1023 10 16.0934 0 0
4:15 am 04:15 Partly Cloudy 46 8 33 0.8 61 61 ENE 6 9 30.24 1024 10 16.0934 0 0
4:35 am 04:35 Mostly Cloudy 46 7.6 33 0.8 62 62 N 14 22 30.27 1025 10 16.0934 0 0
4:55 am 04:55 Cloudy 46 7.5 33 0.5 62 62 N 10 17 30.27 1025 10 16.0934 0 0
5:15 am 05:15 Cloudy 46 7.5 32 0.1 60 60 N 9 15 30.27 1025 10 16.0934 0 0
5:35 am 05:35 Partly Cloudy 45 7.2 31 -0.6 58 58 NNE 12 19 30.27 1025 10 16.0934 0 0
5:55 am 05:55 Clear 45 7.1 30 -1 57 57 NE 14 22 30.27 1025 10 16.0934 0 0
6:15 am 06:15 Partly Cloudy 44 6.7 29 -1.9 55 55 NE 14 22 30.27 1025 10 16.0934 0 0
6:35 am 06:35 Clear 44 6.5 28 -2 55 55 NE 14 22 30.27 1025 10 16.0934 0 0
6:55 am 06:55 Partly Cloudy 44 6.4 29 -1.8 56 56 NNE 8 13 30.3 1026 10 16.0934 0 0
7:15 am 07:15 Partly Cloudy 43 6 29 -1.6 59 59 NE 10 17 30.3 1026 10 16.0934 0 0
7:35 am 07:35 Clear 40 4.7 29 -1.6 64 64 NE 8 13 30.36 1028 10 16.0934 0 0
7:55 am 07:55 Mostly Cloudy 39 4.1 30 -1.3 68 68 NE 7 11 30.36 1028 10 16.0934 0 0
8:15 am 08:15 Mostly Cloudy 42 5.3 31 -0.6 66 66 NE 9 15 30.36 1028 10 16.0934 0 0
8:35 am 08:35 Mostly Cloudy 42 5.5 31 -0.5 66 66 NE 6 9 30.39 1029 10 16.0934 0 0
8:55 am 08:55 Partly Cloudy 42 5.5 29 -1.6 61 61 E 12 19 30.36 1028 10 16.0934 0 0
9:15 am 09:15 Partly Cloudy 44 6.5 27 -3 51 51 ENE 20 31 30.33 1027 10 16.0934 0 0
9:35 am 09:35 Partly Cloudy 43 6 24 -4.5 47 47 ENE 21 33 30.39 1029 10 16.0934 0 0
9:55 am 09:55 Sunny 45 7.2 24 -4.5 44 44 ENE 18 30 30.36 1028 10 16.0934 0 0
10:15 am 10:15 Sunny 45 7.4 24 -4.6 43 43 E 18 30 30.36 1028 10 16.0934 0 0
10:35 am 10:35 Sunny 46 7.8 25 -4.1 43 43 ENE 20 31 30.36 1028 10 16.0934 0 0
10:55 am 10:55 Sunny 46 8 24 -4.2 42 42 E 21 33 30.36 1028 10 16.0934 0 0
11:15 am 11:15 Sunny 47 8.4 26 -3.6 43 43 E 18 30 30.39 1029 10 16.0934 0 0
11:35 am 11:35 Sunny 47 8.5 28 -2.5 46 46 E 18 30 30.39 1029 10 16.0934 0 0
11:55 am 11:55 Sunny 48 8.9 28 -2.2 46 46 E 18 30 30.39 1029 10 16.0934 0 0
12:15 pm 12:15 Sunny 49 9.4 29 -1.6 46 46 E 15 24 30.36 1028 10 16.0934 0 0
12:35 pm 12:35 Sunny 49 9.4 29 -1.6 46 46 E 15 24 30.36 1028 10 16.0934 0 0
12:55 pm 12:55 Sunny 49 9.6 29 -1.4 47 47 E 15 24 30.36 1028 10 16.0934 0 0
1:15 pm 13:15 Sunny 50 10 30 -1 47 47 E 16 26 30.33 1027 10 16.0934 0 0
1:35 pm 13:35 Sunny 50 10.2 29 -1.5 44 44 E 14 22 30.33 1027 10 16.0934 0 0
1:55 pm 13:55 Sunny 50 10.2 28 -2.3 42 42 E 16 26 30.33 1027 10 16.0934 0 0
2:15 pm 14:15 Sunny 51 10.7 29 -1.9 42 42 E 16 26 30.33 1027 10 16.0934 0 0
2:35 pm 14:35 Sunny 52 11 30 -1.2 43 43 E 15 24 30.3 1026 10 16.0934 0 0
2:55 pm 14:55 Sunny 52 10.9 32 -0.2 47 47 E 20 31 30.3 1026 10 16.0934 0 0
3:15 pm 15:15 Sunny 51 10.6 32 0 48 48 E 17 28 30.3 1026 10 16.0934 0 0
3:35 pm 15:35 Partly Cloudy 51 10.6 33 0.3 49 49 E 13 20 30.3 1026 10 16.0934 0 0
3:55 pm 15:55 Partly Cloudy 50 10.2 33 0.6 52 52 ENE 20 31 30.3 1026 10 16.0934 0 0
4:15 pm 16:15 Mostly Cloudy 51 10.4 34 1.1 53 53 E 15 24 30.3 1026 10 16.0934 0 0
4:35 pm 16:35 Cloudy 50 10.1 34 1.2 54 54 ENE 17 28 30.3 1026 10 16.0934 0 0
4:55 pm 16:55 Mostly Cloudy 48 9 34 0.9 57 57 ENE 18 30 30.33 1027 10 16.0934 0 0
5:15 pm 17:15 Mostly Cloudy 47 8.2 33 0.8 60 60 ENE 16 26 30.3 1026 10 16.0934 0 0
5:35 pm 17:35 Mostly Cloudy 46 7.8 33 0.7 61 61 ENE 15 24 30.3 1026 10 16.0934 0 0
5:55 pm 17:55 Mostly Cloudy 47 8.2 34 1 61 61 E 16 26 30.33 1027 10 16.0934 0 0
6:15 pm 18:15 Mostly Cloudy 46 7.5 33 0.6 62 62 E 17 28 30.33 1027 10 16.0934 0 0
6:35 pm 18:35 Cloudy 44 6.5 32 0.1 64 64 ENE 17 28 30.33 1027 10 16.0934 0 0
6:55 pm 18:55 Cloudy 43 6.2 32 0 65 65 ENE 16 26 30.36 1028 10 16.0934 0 0
7:15 pm 19:15 Cloudy 43 6 32 0 66 66 ENE 15 24 30.36 1028 10 16.0934 0 0
7:35 pm 19:35 Cloudy 42 5.7 32 0 67 67 ENE 15 24 30.39 1029 10 16.0934 0 0
7:55 pm 19:55 Cloudy 42 5.5 32 0 68 68 E 14 22 30.39 1029 10 16.0934 0 0
8:15 pm 20:15 Cloudy 42 5.5 32 0.1 69 69 ENE 14 22 30.39 1029 10 16.0934 0 0
8:35 pm 20:35 Cloudy 42 5.3 32 0 69 69 E 13 20 30.39 1029 10 16.0934 0 0
8:55 pm 20:55 Cloudy 42 5.3 32 0 69 69 ENE 13 20 30.42 1030 10 16.0934 0 0
9:15 pm 21:15 Cloudy 41 5.1 32 0 70 70 E 12 19 30.42 1030 10 16.0934 0 0
9:35 pm 21:35 Cloudy 41 5.1 32 0 70 70 E 14 22 30.42 1030 10 16.0934 0 0
9:55 pm 21:55 Cloudy 41 5 32 -0.1 70 70 E 10 17 30.42 1030 10 16.0934 0 0
10:15 pm 22:15 Cloudy 41 4.8 31 -0.5 69 69 E 12 19 30.42 1030 10 16.0934 0 0
10:35 pm 22:35 Cloudy 40 4.3 25 -3.7 56 56 E 14 22 30.42 1030 10 16.0934 0 0
10:55 pm 22:55 Partly Cloudy 39 4 24 -4.6 54 54 E 13 20 30.42 1030 10 16.0934 0 0
11:15 pm 23:15 Partly Cloudy 38 3.5 24 -4.3 57 57 E 17 28 30.45 1031 10 16.0934 0 0
11:35 pm 23:35 Mostly Cloudy 37 2.9 26 -3.4 64 64 E 17 28 30.45 1031 10 16.0934 0 0
11:55 pm 23:55 Cloudy 37 2.5 26 -3.1 67 67 E 14 22 30.45 1031 10 16.0934 0 0

Powered by AerisWeather